METEOR 2-11

导读 | 豆包AI

METEOR 2-11是独联体(CIS)继承自苏联航天遗产发射的第二代极轨气象卫星,属于“流星-2”系列,于1984年7月5日成功入轨。它运行在约850-950公里高度的近极轨道,携带可见光/红外相机与辐射探测设备,可获取云层、大气辐射数据,支撑气象预报与气候研究,为全球气象观测网络提供了重要数据支撑,是苏联气象卫星体系延续发展的代表性节点。

Basic Information
目录编号:
15099
目录名称:
METEOR 2-11
国际标识:
1984-072A
轨道中心:
EARTH
卫星名称:
METEOR 2-11
卫星全名:
--
卫星状态:
在轨 (已飞行15227 天)
发射日期:
1984-07-05 UTC
国别 :
俄罗斯(独联体) (CIS)
星等 :
--
Orbit Information
数据来源 国际轨道数据 AOE轨道数据
星历时间 2026-03-13T16:18:48+0800
20小时前
查看轨道信息
2026-03-11T09:00:00+0800
3天前
查看轨道信息
半长轴 7323.309km 7323.307km
偏心率 0.0013216 0.0013216
轨道倾角 82.528° 82.529°
近地点辐角 6.023° 12.942°
升交点赤经 115.625° 117.463°
平近点角 354.109° 19.897°
近地点 935.493km 935.491km
远地点 954.851km 954.849km
周期 103.949分钟 103.949分钟
每日圈数 13.852933 13.852941
Detailed Information
使用方式:
暂无
2D Orbit Map
3D Orbit Map
Orbit Altitude Analysis Chart
Orbit Inclination Analysis Chart
Orbit Comprehensive Analysis Chart
View Comprehensive Chart